Tracking 31027 objects as of 19-Jul-2025
HD Live streaming from Space Station
objects crossing your sky now

SL-8 DEB

Track SL-8 DEB now!
10-day predictions


NORAD ID: 21187
Int'l Code: 1991-009BA
Perigee: 1,502.7 km
Apogee: 1,789.8 km
Inclination: 74.2 °
Period: 119.1 minutes
Semi major axis: 8017 km
RCS: 0.05 m2 (small)
Launch date: February 12, 1991
Source: Commonwealth of Independent States (former USSR) (CIS)
Launch site: PLESETSK MISSILE AND SPACE COMPLEX (PKMTR)

Note: This is SATELLITE DEBRIS
Your satellite tracking list
CZ-4C DEB
Track 1 satellite(s)




NASA's NSSDC Master Catalog

Two Line Element Set (TLE):
1 21187U 91009BA  25199.31968100  .00000221  00000-0  24546-2 0  9990
2 21187  74.2432  41.4868 0179040 157.3813  19.6806 12.09378654516943
Source of the keplerian elements: AFSPC